DLH7YA EDDF-EPWA

Flight info

Callsign DLH7YA
Flight time 1h 15m
Altitude 37000
Route TOBAK2D TOBAK N858 SWALM T201 TAMEB DCT NEVKO DCT POZUM DCT ADVAB DCT OBOKU DCT DOSIX P150 BIMPA
Aircraft A320/M-SDE3FGHIRWY/LB1

Departure

Time 2026-04-14 22:13
Airport Frankfurt Main Airport (EDDF)

Arrival

Time 2026-04-14 23:28
Airport Warsaw Chopin Airport (EPWA)
Time Latitude Longitude Altitude Speed Heading
2026-04-14 21:45 50.04743 8.58176 363 ft 0 kts 159°
2026-04-14 22:01 50.04751 8.58172 362 ft 4 kts 159°
2026-04-14 22:01 50.04776 8.58157 361 ft 4 kts 159°
2026-04-14 22:01 50.04801 8.58145 364 ft 4 kts 179°
2026-04-14 22:02 50.04824 8.58154 362 ft 4 kts 230°
2026-04-14 22:02 50.04833 8.58181 360 ft 4 kts 249°
2026-04-14 22:02 50.04835 8.58189 359 ft 0 kts 249°
2026-04-14 22:04 50.04823 8.58136 360 ft 11 kts 249°
2026-04-14 22:04 50.04795 8.58024 360 ft 11 kts 244°
2026-04-14 22:05 50.04747 8.57953 358 ft 9 kts 200°
2026-04-14 22:05 50.04693 8.57966 360 ft 7 kts 158°
2026-04-14 22:05 50.04653 8.57993 361 ft 5 kts 157°
2026-04-14 22:05 50.04628 8.58008 363 ft 2 kts 160°
2026-04-14 22:06 50.04565 8.58030 364 ft 15 kts 196°
2026-04-14 22:06 50.04516 8.57907 369 ft 15 kts 251°
2026-04-14 22:06 50.04466 8.57694 369 ft 24 kts 249°
2026-04-14 22:06 50.04405 8.57438 363 ft 26 kts 250°
2026-04-14 22:07 50.04340 8.57171 361 ft 25 kts 248°
2026-04-14 22:07 50.04282 8.56929 363 ft 23 kts 250°
2026-04-14 22:07 50.04222 8.56679 363 ft 26 kts 249°
2026-04-14 22:07 50.04156 8.56403 361 ft 28 kts 249°
2026-04-14 22:08 50.04096 8.56145 353 ft 24 kts 250°
2026-04-14 22:08 50.04035 8.55892 350 ft 26 kts 249°
2026-04-14 22:08 50.03976 8.55643 351 ft 23 kts 250°
2026-04-14 22:08 50.03990 8.55457 355 ft 17 kts 345°
2026-04-14 22:09 50.04091 8.55369 359 ft 17 kts 291°
2026-04-14 22:09 50.04063 8.55199 356 ft 17 kts 250°
2026-04-14 22:09 50.04020 8.55021 358 ft 18 kts 245°
2026-04-14 22:09 50.03972 8.54821 355 ft 21 kts 250°
2026-04-14 22:10 50.03918 8.54590 350 ft 24 kts 250°
2026-04-14 22:10 50.03856 8.54355 349 ft 13 kts 232°
2026-04-14 22:10 50.03773 8.54351 350 ft 13 kts 159°
2026-04-14 22:10 50.03684 8.54371 346 ft 14 kts 209°
2026-04-14 22:11 50.03607 8.54303 347 ft 13 kts 173°
2026-04-14 22:11 50.03529 8.54354 349 ft 10 kts 153°
2026-04-14 22:11 50.03500 8.54433 349 ft 8 kts 101°
2026-04-14 22:11 50.03504 8.54474 354 ft 0 kts 72°
2026-04-14 22:12 50.03527 8.54573 347 ft 40 kts 69°
2026-04-14 22:12 50.03715 8.55350 353 ft 110 kts 69°
2026-04-14 22:13 50.04046 8.56733 363 ft 160 kts 69°
2026-04-14 22:13 50.04422 8.58356 1014 ft 157 kts 71°
2026-04-14 22:13 50.04785 8.59982 1645 ft 164 kts 70°
2026-04-14 22:13 50.05183 8.61742 1999 ft 185 kts 70°
2026-04-14 22:14 50.05640 8.63771 2329 ft 208 kts 70°
2026-04-14 22:14 50.06141 8.65997 2869 ft 224 kts 70°
2026-04-14 22:14 50.06655 8.68275 3806 ft 223 kts 70°
2026-04-14 22:14 50.07355 8.70433 4630 ft 227 kts 51°
2026-04-14 22:15 50.08577 8.72017 5200 ft 244 kts 28°
2026-04-14 22:15 50.10093 8.73421 5733 ft 261 kts 43°
2026-04-14 22:15 50.11164 8.75730 6559 ft 267 kts 63°
2026-04-14 22:15 50.11916 8.78401 7445 ft 271 kts 69°
2026-04-14 22:16 50.12580 8.81170 8290 ft 275 kts 69°
2026-04-14 22:16 50.13276 8.84017 9131 ft 280 kts 68°
2026-04-14 22:16 50.14021 8.86850 9936 ft 285 kts 66°
2026-04-14 22:16 50.14825 8.89713 10611 ft 296 kts 65°
2026-04-14 22:17 50.15715 8.92733 10890 ft 319 kts 64°
2026-04-14 22:17 50.16698 8.95966 11269 ft 337 kts 64°
2026-04-14 22:17 50.17725 8.99295 11939 ft 344 kts 63°
2026-04-14 22:17 50.18763 9.02637 12647 ft 349 kts 63°
2026-04-14 22:18 50.19824 9.06062 13363 ft 353 kts 63°
2026-04-14 22:18 50.20895 9.09534 14060 ft 357 kts 63°
2026-04-14 22:18 50.21975 9.13051 14732 ft 361 kts 64°
2026-04-14 22:18 50.23062 9.16602 15393 ft 365 kts 64°
2026-04-14 22:19 50.24162 9.20197 16055 ft 368 kts 64°
2026-04-14 22:19 50.26389 9.27492 17284 ft 376 kts 64°
2026-04-14 22:19 50.27514 9.31191 17872 ft 379 kts 64°
2026-04-14 22:20 50.28649 9.34935 18468 ft 383 kts 64°
2026-04-14 22:20 50.29794 9.38717 19023 ft 386 kts 64°
2026-04-14 22:20 50.30949 9.42531 19569 ft 390 kts 64°
2026-04-14 22:20 50.32113 9.46384 20103 ft 393 kts 64°
2026-04-14 22:21 50.33286 9.50271 20624 ft 397 kts 64°
2026-04-14 22:21 50.34469 9.54188 21120 ft 401 kts 64°
2026-04-14 22:21 50.35665 9.58153 21631 ft 404 kts 64°
2026-04-14 22:21 50.36867 9.62139 22112 ft 407 kts 64°
2026-04-14 22:22 50.38079 9.66164 22573 ft 410 kts 64°
2026-04-14 22:22 50.39299 9.70233 23038 ft 413 kts 64°
2026-04-14 22:22 50.40519 9.74319 23477 ft 416 kts 64°
2026-04-14 22:22 50.41748 9.78450 23900 ft 420 kts 64°
2026-04-14 22:23 50.42983 9.82616 24305 ft 423 kts 64°
2026-04-14 22:23 50.44228 9.86803 24737 ft 425 kts 64°
2026-04-14 22:23 50.45483 9.91016 25158 ft 427 kts 64°
2026-04-14 22:23 50.46739 9.95248 25576 ft 429 kts 64°
2026-04-14 22:24 50.48000 9.99512 25982 ft 431 kts 64°
2026-04-14 22:24 50.49264 10.03790 26384 ft 433 kts 64°
2026-04-14 22:24 50.50532 10.08080 26763 ft 435 kts 64°
2026-04-14 22:24 50.51807 10.12404 27144 ft 436 kts 64°
2026-04-14 22:25 50.53078 10.16732 27521 ft 438 kts 64°
2026-04-14 22:25 50.54354 10.21093 27890 ft 440 kts 64°
2026-04-14 22:25 50.55203 10.23995 28129 ft 441 kts 63°
2026-04-14 22:25 50.56483 10.28372 28483 ft 443 kts 63°
2026-04-14 22:26 50.58195 10.34229 28926 ft 445 kts 63°
2026-04-14 22:26 50.59486 10.38659 29250 ft 447 kts 63°
2026-04-14 22:26 50.60782 10.43105 29547 ft 448 kts 63°
2026-04-14 22:26 50.62084 10.47587 29848 ft 450 kts 63°
2026-04-14 22:27 50.62962 10.50619 30040 ft 451 kts 63°
2026-04-14 22:27 50.64267 10.55128 30317 ft 453 kts 63°
2026-04-14 22:27 50.65558 10.59592 30583 ft 455 kts 63°
2026-04-14 22:27 50.66870 10.64140 30839 ft 457 kts 63°
2026-04-14 22:28 50.68182 10.68711 31085 ft 459 kts 63°
2026-04-14 22:28 50.69494 10.73296 31387 ft 459 kts 63°
2026-04-14 22:28 50.70807 10.77892 31734 ft 458 kts 63°
2026-04-14 22:28 50.72114 10.82460 32085 ft 457 kts 63°
2026-04-14 22:29 50.73423 10.87042 32434 ft 457 kts 63°
2026-04-14 22:29 50.74723 10.91609 32783 ft 456 kts 63°
2026-04-14 22:29 50.76018 10.96162 33122 ft 455 kts 63°
2026-04-14 22:29 50.77312 11.00728 33450 ft 454 kts 63°
2026-04-14 22:30 50.78598 11.05265 33762 ft 453 kts 63°
2026-04-14 22:30 50.79889 11.09824 34099 ft 453 kts 63°
2026-04-14 22:30 50.81171 11.14355 34420 ft 452 kts 63°
2026-04-14 22:30 50.82451 11.18896 34705 ft 452 kts 63°
2026-04-14 22:31 50.83728 11.23445 34994 ft 452 kts 63°
2026-04-14 22:31 50.85000 11.27995 35261 ft 453 kts 63°
2026-04-14 22:31 50.86272 11.32551 35501 ft 453 kts 64°
2026-04-14 22:31 50.87534 11.37129 35748 ft 453 kts 64°
2026-04-14 22:32 50.88785 11.41714 35995 ft 454 kts 64°
2026-04-14 22:32 50.90027 11.46297 36205 ft 454 kts 64°
2026-04-14 22:32 50.91273 11.50913 36414 ft 455 kts 64°
2026-04-14 22:32 50.92501 11.55462 36618 ft 456 kts 64°
2026-04-14 22:33 50.93746 11.60073 36844 ft 455 kts 64°
2026-04-14 22:33 50.94991 11.64685 37148 ft 453 kts 64°
2026-04-14 22:33 50.96228 11.69265 37258 ft 450 kts 64°
2026-04-14 22:34 50.98685 11.78385 37275 ft 448 kts 65°
2026-04-14 22:34 51.01123 11.87486 37275 ft 449 kts 65°
2026-04-14 22:35 51.03559 11.96617 37275 ft 449 kts 65°
2026-04-14 22:35 51.05988 12.05758 37275 ft 450 kts 65°
2026-04-14 22:36 51.08414 12.14922 37276 ft 451 kts 65°
2026-04-14 22:36 51.10825 12.24075 37279 ft 451 kts 65°
2026-04-14 22:37 51.13237 12.33296 37280 ft 452 kts 65°
2026-04-14 22:37 51.15649 12.42534 37283 ft 452 kts 65°
2026-04-14 22:38 51.18066 12.51781 37283 ft 452 kts 65°
2026-04-14 22:38 51.20466 12.61041 37287 ft 452 kts 66°
2026-04-14 22:39 51.22856 12.70312 37287 ft 452 kts 66°
2026-04-14 22:39 51.25241 12.79588 37286 ft 452 kts 66°
2026-04-14 22:40 51.27620 12.88876 37284 ft 452 kts 66°
2026-04-14 22:40 51.29993 12.98164 37281 ft 452 kts 66°
2026-04-14 22:41 51.32362 13.07482 37282 ft 453 kts 66°
2026-04-14 22:41 51.34721 13.16822 37279 ft 453 kts 66°
2026-04-14 22:42 51.37072 13.26175 37278 ft 453 kts 66°
2026-04-14 22:42 51.39402 13.35464 37277 ft 453 kts 66°
2026-04-14 22:43 51.41746 13.44832 37275 ft 453 kts 66°
2026-04-14 22:43 51.44082 13.54208 37274 ft 453 kts 66°
2026-04-14 22:44 51.46411 13.63594 37273 ft 453 kts 67°
2026-04-14 22:44 51.48724 13.73000 37274 ft 453 kts 67°
2026-04-14 22:45 51.51031 13.82420 37274 ft 454 kts 67°
2026-04-14 22:45 51.53341 13.91860 37273 ft 454 kts 67°
2026-04-14 22:46 51.55660 14.01375 37275 ft 454 kts 67°
2026-04-14 22:46 51.57941 14.10771 37277 ft 455 kts 67°
2026-04-14 22:47 51.60233 14.20250 37278 ft 455 kts 67°
2026-04-14 22:47 51.62519 14.29742 37275 ft 455 kts 67°
2026-04-14 22:48 51.64789 14.39249 37273 ft 455 kts 68°
2026-04-14 22:48 51.67047 14.48749 37271 ft 455 kts 68°
2026-04-14 22:49 51.69307 14.58263 37267 ft 455 kts 68°
2026-04-14 22:49 51.71560 14.67796 37264 ft 455 kts 68°
2026-04-14 22:50 51.73679 14.77348 37258 ft 455 kts 70°
2026-04-14 22:50 51.75683 14.87050 37253 ft 456 kts 71°
2026-04-14 22:51 51.77680 14.96761 37249 ft 456 kts 70°
2026-04-14 22:51 51.79708 15.06472 37248 ft 456 kts 70°
2026-04-14 22:52 51.81753 15.16175 37246 ft 457 kts 70°
2026-04-14 22:52 51.83786 15.25908 37243 ft 457 kts 71°
2026-04-14 22:53 51.85803 15.35674 37246 ft 458 kts 71°
2026-04-14 22:53 51.87806 15.45454 37249 ft 458 kts 71°
2026-04-14 22:54 51.89806 15.55249 37247 ft 458 kts 71°
2026-04-14 22:54 51.91802 15.65052 37240 ft 459 kts 71°
2026-04-14 22:55 51.93791 15.74869 37243 ft 459 kts 71°
2026-04-14 22:55 51.95770 15.84696 37241 ft 459 kts 71°
2026-04-14 22:56 51.97742 15.94531 37241 ft 459 kts 71°
2026-04-14 22:56 51.99704 16.04385 37244 ft 459 kts 71°
2026-04-14 22:57 52.01661 16.14256 37246 ft 459 kts 72°
2026-04-14 22:57 52.03610 16.24131 37244 ft 459 kts 72°
2026-04-14 22:58 52.05545 16.33951 37246 ft 460 kts 72°
2026-04-14 22:58 52.07483 16.43853 37252 ft 460 kts 72°
2026-04-14 22:59 52.09410 16.53775 37255 ft 460 kts 72°
2026-04-14 22:59 52.11325 16.63697 37255 ft 460 kts 72°
2026-04-14 23:00 52.13135 16.73675 37259 ft 460 kts 78°
2026-04-14 23:00 52.14185 16.83936 37261 ft 459 kts 81°
2026-04-14 23:01 52.15212 16.94197 37259 ft 459 kts 81°
2026-04-14 23:01 52.16227 17.04451 37260 ft 458 kts 81°
2026-04-14 23:02 52.17231 17.14697 37260 ft 458 kts 81°
2026-04-14 23:02 52.18223 17.24935 37260 ft 458 kts 81°
2026-04-14 23:03 52.19204 17.35127 37260 ft 458 kts 81°
2026-04-14 23:03 52.20185 17.45386 37257 ft 458 kts 81°
2026-04-14 23:04 52.21154 17.55639 37253 ft 458 kts 81°
2026-04-14 23:04 52.22112 17.65895 37251 ft 457 kts 81°
2026-04-14 23:05 52.23057 17.76159 37251 ft 457 kts 81°
2026-04-14 23:05 52.23997 17.86424 37251 ft 457 kts 81°
2026-04-14 23:06 52.24923 17.96692 37248 ft 457 kts 81°
2026-04-14 23:06 52.25828 18.06966 37247 ft 457 kts 82°
2026-04-14 23:07 52.26668 18.17247 37054 ft 458 kts 82°
2026-04-14 23:07 52.27080 18.22408 36009 ft 459 kts 83°
2026-04-14 23:07 52.27492 18.27586 34804 ft 460 kts 83°
2026-04-14 23:07 52.27909 18.32786 33934 ft 464 kts 84°
2026-04-14 23:08 52.28332 18.38057 32905 ft 471 kts 84°
2026-04-14 23:08 52.28755 18.43343 32351 ft 466 kts 84°
2026-04-14 23:08 52.29175 18.48580 31721 ft 463 kts 84°
2026-04-14 23:08 52.29589 18.53778 31084 ft 460 kts 84°
2026-04-14 23:09 52.29997 18.58950 30442 ft 457 kts 84°
2026-04-14 23:09 52.30396 18.64075 29813 ft 454 kts 84°
2026-04-14 23:09 52.30791 18.69176 29210 ft 451 kts 84°
2026-04-14 23:09 52.31182 18.74253 28599 ft 448 kts 84°
2026-04-14 23:10 52.31569 18.79280 27996 ft 445 kts 84°
2026-04-14 23:10 52.31950 18.84282 27404 ft 442 kts 84°
2026-04-14 23:10 52.32324 18.89234 26819 ft 438 kts 84°
2026-04-14 23:10 52.32695 18.94164 26242 ft 434 kts 83°
2026-04-14 23:11 52.33060 18.99036 25686 ft 430 kts 83°
2026-04-14 23:11 52.33420 19.03865 25145 ft 425 kts 83°
2026-04-14 23:11 52.33771 19.08631 24617 ft 421 kts 83°
2026-04-14 23:11 52.34113 19.13302 24106 ft 416 kts 83°
2026-04-14 23:12 52.34455 19.17966 23604 ft 411 kts 83°
2026-04-14 23:12 52.34795 19.22588 23108 ft 407 kts 83°
2026-04-14 23:12 52.35097 19.27230 22643 ft 403 kts 84°
2026-04-14 23:12 52.35334 19.31716 22186 ft 398 kts 85°
2026-04-14 23:13 52.35538 19.36212 21721 ft 395 kts 86°
2026-04-14 23:13 52.35730 19.40670 21256 ft 392 kts 86°
2026-04-14 23:13 52.35922 19.45101 20778 ft 389 kts 85°
2026-04-14 23:13 52.36122 19.49494 20310 ft 386 kts 85°
2026-04-14 23:14 52.36328 19.53865 19828 ft 384 kts 85°
2026-04-14 23:14 52.36537 19.58215 19342 ft 383 kts 85°
2026-04-14 23:14 52.36745 19.62533 18866 ft 380 kts 85°
2026-04-14 23:14 52.36948 19.66852 18383 ft 379 kts 85°
2026-04-14 23:15 52.37146 19.71137 17906 ft 377 kts 85°
2026-04-14 23:15 52.37371 19.75405 17434 ft 375 kts 81°
2026-04-14 23:15 52.37969 19.79542 16932 ft 374 kts 70°
2026-04-14 23:15 52.38932 19.83465 16549 ft 369 kts 66°
2026-04-14 23:16 52.39907 19.87377 16035 ft 369 kts 67°
2026-04-14 23:16 52.40851 19.91233 15466 ft 361 kts 67°
2026-04-14 23:16 52.41775 19.95039 14746 ft 356 kts 67°
2026-04-14 23:16 52.42680 19.98783 14224 ft 353 kts 67°
2026-04-14 23:17 52.43581 20.02505 13704 ft 351 kts 67°
2026-04-14 23:17 52.44483 20.06225 13196 ft 352 kts 67°
2026-04-14 23:17 52.45383 20.09932 12744 ft 349 kts 67°
2026-04-14 23:18 52.47161 20.17248 11788 ft 340 kts 67°
2026-04-14 23:18 52.48026 20.20825 11145 ft 335 kts 68°
2026-04-14 23:18 52.48872 20.24342 10701 ft 324 kts 68°
2026-04-14 23:18 52.49524 20.27699 10389 ft 306 kts 83°
2026-04-14 23:19 52.49398 20.31137 10146 ft 296 kts 107°
2026-04-14 23:19 52.48510 20.34085 10026 ft 293 kts 130°
2026-04-14 23:19 52.47004 20.36292 9766 ft 291 kts 152°
2026-04-14 23:19 52.45127 20.37490 9362 ft 289 kts 164°
2026-04-14 23:20 52.43837 20.38147 9122 ft 287 kts 164°
2026-04-14 23:20 52.41937 20.39116 8548 ft 283 kts 163°
2026-04-14 23:20 52.40076 20.40068 7987 ft 277 kts 163°
2026-04-14 23:20 52.38252 20.41006 7486 ft 274 kts 163°
2026-04-14 23:21 52.36424 20.41949 7030 ft 276 kts 163°
2026-04-14 23:21 52.34607 20.42890 6654 ft 273 kts 163°
2026-04-14 23:21 52.32827 20.43905 6084 ft 269 kts 155°
2026-04-14 23:21 52.31284 20.45596 5454 ft 267 kts 137°
2026-04-14 23:22 52.30140 20.47945 4954 ft 265 kts 121°
2026-04-14 23:22 52.29356 20.50659 4682 ft 260 kts 116°
2026-04-14 23:22 52.28624 20.53330 4679 ft 257 kts 116°
2026-04-14 23:22 52.27920 20.55898 4684 ft 239 kts 116°
2026-04-14 23:23 52.27266 20.58269 4692 ft 223 kts 117°
2026-04-14 23:23 52.26619 20.60603 4668 ft 226 kts 117°
2026-04-14 23:23 52.25970 20.62953 4483 ft 226 kts 117°
2026-04-14 23:23 52.25322 20.65297 4203 ft 227 kts 117°
2026-04-14 23:24 52.24678 20.67633 3903 ft 224 kts 117°
2026-04-14 23:24 52.24064 20.69852 3619 ft 211 kts 117°
2026-04-14 23:24 52.23470 20.71992 3353 ft 200 kts 117°
2026-04-14 23:24 52.22911 20.74007 3093 ft 189 kts 118°
2026-04-14 23:25 52.22387 20.75891 2855 ft 179 kts 118°
2026-04-14 23:25 52.21880 20.77712 2619 ft 175 kts 117°
2026-04-14 23:25 52.21377 20.79517 2379 ft 175 kts 116°
2026-04-14 23:25 52.20882 20.81298 2143 ft 167 kts 116°
2026-04-14 23:26 52.20434 20.82904 1931 ft 147 kts 115°
2026-04-14 23:26 52.20026 20.84368 1739 ft 138 kts 115°
2026-04-14 23:26 52.19632 20.85780 1564 ft 137 kts 114°
2026-04-14 23:26 52.19234 20.87191 1381 ft 137 kts 115°
2026-04-14 23:27 52.18839 20.88598 1197 ft 136 kts 115°
2026-04-14 23:27 52.18443 20.89986 1018 ft 137 kts 114°
2026-04-14 23:27 52.18058 20.91392 827 ft 136 kts 114°
2026-04-14 23:27 52.17668 20.92792 643 ft 135 kts 114°
2026-04-14 23:28 52.17281 20.94187 461 ft 135 kts 115°
2026-04-14 23:28 52.16893 20.95555 355 ft 126 kts 115°
2026-04-14 23:28 52.16608 20.96593 337 ft 61 kts 113°
2026-04-14 23:28 52.16506 20.97017 334 ft 24 kts 95°
2026-04-14 23:29 52.16515 20.97188 335 ft 13 kts 88°
2026-04-14 23:29 52.16527 20.97330 336 ft 12 kts 48°
2026-04-14 23:29 52.16589 20.97335 337 ft 8 kts 341°
2026-04-14 23:29 52.16638 20.97296 336 ft 8 kts 331°
2026-04-14 23:30 52.16689 20.97250 335 ft 8 kts 331°
2026-04-14 23:30 52.16733 20.97210 336 ft 7 kts 331°
2026-04-14 23:30 52.16780 20.97168 335 ft 8 kts 331°
2026-04-14 23:30 52.16829 20.97123 337 ft 8 kts 331°
2026-04-14 23:31 52.16874 20.97082 335 ft 7 kts 331°
2026-04-14 23:31 52.16913 20.97049 338 ft 6 kts 332°
2026-04-14 23:31 52.16949 20.97023 336 ft 5 kts 345°
2026-04-14 23:31 52.16978 20.97051 337 ft 7 kts 52°
2026-04-14 23:32 52.16993 20.97114 337 ft 6 kts 70°
2026-04-14 23:32 52.17000 20.97145 337 ft 0 kts 69°